RH
56 35 35 31 34 37 33 26 22 39 64 70 63 62 82 91 81 77 74 72 82 78 82 83 81 81 77 78 76 55 48 54 66 76 85 87 78 82 90 92 78 79 83 81 81 93 90 76 68
47 37 34 40 36 37 33 23 35 41 66 69 58 60 82 92 75 77 73 70 82 89 89 80 84 83 81 82 83 82 76 61 63 76 76 84 88 81 88 94 84 74 72 70 79 68 66 78 72
39 40 36 39 44 34 24 22 47 49 68 41 58 64 69 80 72 70 72 73 76 80 88 85 84 84 83 84 85 86 85 81 77 58 53 63 81 84 82 88 93 81 69 66 66 64 62 58 58
42 38 38 39 32 27 24 30 42 48 47 53 63 78 71 64 68 71 90 77 76 81 90 88 82 81 82 83 85 86 86 83 83 82 80 63 64 79 82 90 93 92 78 69 68 69 67 66 59
36 44 42 35 31 26 32 40 39 35 51 58 55 81 80 63 67 83 94 85 84 90 91 86 83 82 82 82 82 85 86 87 86 86 87 85 78 68 71 80 93 94 89 73 69 72 71 66 64
53 42 45 36 27 30 32 32 36 52 52 57 73 75 70 62 73 80 92 93 91 89 89 88 88 90 88 87 85 85 87 88 89 89 89 89 89 86 79 76 85 90 92 82 75 70 72 73 67
51 41 43 32 27 31 28 27 39 40 43 49 61 79 67 55 69 78 89 90 92 92 92 90 90 87 87 83 78 81 82 83 86 88 90 90 90 89 88 87 86 84 87 89 87 82 76 76 78
48 42 36 31 35 33 26 26 28 34 35 36 52 86 83 54 68 73 73 68 68 68 57 51 46 39 39 38 41 41 44 43 47 53 67 86 90 96 97 96 90 90 92 90 88 87 86 82 79
37 46 44 33 34 31 26 29 33 40 50 52 54 64 56 57 45 39 38 37 38 35 34 34 34 33 33 33 34 31 29 30 33 31 35 41 41 54 70 87 84 91 88 91 93 94 94 93 91
43 45 40 36 35 32 28 29 33 45 54 61 60 54 50 46 40 40 37 34 31 31 31 30 29 27 25 25 24 24 23 25 26 26 27 28 29 38 38 34 58 83 75 78 86 92 96 98 97
40 45 40 34 37 31 28 28 32 47 43 57 66 59 53 46 46 46 40 34 31 32 32 31 29 27 24 22 21 22 22 22 24 28 28 28 29 29 29 29 30 32 36 44 70 83 92 98 99
41 37 33 32 33 27 29 30 34 32 31 39 60 52 50 55 54 47 39 34 32 32 32 32 30 28 26 24 24 24 25 26 27 28 32 33 33 33 33 33 34 36 36 34 35 36 42 52 58
38 33 30 32 36 33 31 33 34 37 43 50 46 42 50 50 45 40 36 34 32 31 32 32 32 30 30 30 32 34 36 39 40 42 41 41 41 41 40 38 38 39 39 39 37 36 36 36 38
35 33 30 30 29 30 30 26 28 32 38 45 43 43 46 44 38 35 33 30 31 31 33 34 33 35 37 38 41 43 48 50 53 54 56 57 56 53 51 49 48 48 47 47 46 46 44 43 42
32 34 33 35 30 26 27 26 26 32 34 40 41 40 40 40 36 30 27 26 28 31 33 34 36 39 42 44 49 52 54 57 59 61 62 64 64 64 63 61 58 57 55 53 51 49 49 50 49
34 36 42 32 29 24 30 40 26 33 35 38 37 38 36 37 32 28 26 26 29 32 33 36 39 42 45 51 55 57 59 60 62 60 56 58 60 61 64 65 64 65 64 62 60 61 62 62 58
45 46 41 33 33 27 26 25 27 32 33 35 35 35 34 34 31 27 25 26 30 34 37 40 43 48 53 57 60 59 54 54 49 45 51 59 67 68 72 72 70 68 64 64 67 68 71 71 70
40 47 38 37 32 26 26 27 24 30 31 32 30 31 31 30 28 23 24 29 35 38 41 46 51 54 58 59 57 48 42 44 46 63 72 74 75 74 72 74 72 72 72 73 75 80 79 80 81
40 43 46 40 33 23 26 30 27 28 32 38 38 36 34 32 25 21 21 33 39 41 44 49 54 56 60 58 49 42 44 51 74 75 76 77 78 80 80 74 73 75 74 75 79 84 80 73 79
40 41 39 37 45 25 37 36 30 27 29 31 33 37 35 30 27 38 40 42 42 41 47 52 54 58 58 53 48 47 51 76 79 79 78 80 81 83 82 81 76 76 78 78 80 81 84 85 79
68 46 39 35 43 46 38 26 20 25 30 26 31 36 32 31 30 48 53 48 45 45 48 51 55 58 55 48 43 41 66 78 78 80 80 81 82 82 82 80 80 79 80 77 74 80 86 92 84
54 57 48 40 50 37 44 39 24 26 35 32 33 38 39 35 32 46 52 49 44 42 46 52 58 57 51 47 39 54 79 85 83 84 83 82 83 86 84 84 83 81 80 80 77 80 83 87 90
57 56 54 52 76 62 46 58 34 36 25 29 31 34 39 38 40 47 47 40 39 42 46 52 56 55 50 47 40 62 81 84 83 82 82 81 83 90 88 87 87 86 87 85 76 78 78 83 91
58 66 65 71 80 57 59 63 56 33 34 31 30 35 38 40 41 45 43 43 42 45 50 53 55 52 51 46 45 66 81 82 84 81 81 79 83 87 88 87 88 88 86 77 74 78 75 78 84
59 53 70 55 67 54 86 77 58 44 40 37 42 34 35 41 42 48 48 44 44 48 51 54 55 51 51 47 44 66 80 83 85 84 83 82 84 88 84 88 89 88 83 73 74 79 74 77 78
76 60 70 30 64 76 72 73 60 37 40 38 37 39 39 42 50 49 44 42 42 41 40 44 52 53 51 48 42 60 77 81 84 86 85 83 85 86 86 86 87 84 85 80 76 81 81 82 82
54 71 60 80 79 77 69 50 37 43 36 44 50 53 47 48 48 50 45 46 38 36 35 39 44 48 51 49 41 43 75 79 82 86 91 86 88 89 92 89 84 84 82 83 78 79 87 87 87
58 60 58 79 43 45 61 69 68 52 41 48 49 57 56 52 51 50 47 41 35 37 38 41 44 48 50 50 42 39 69 78 80 85 88 88 88 89 90 89 87 84 82 81 80 81 84 88 88
79 80 76 63 66 65 64 58 64 66 45 46 53 52 53 55 56 55 48 40 39 40 41 41 47 51 50 51 45 38 47 73 78 82 85 86 86 88 89 89 88 85 83 84 83 82 83 85 90
54 56 66 70 50 88 84 70 42 60 64 55 56 54 56 59 59 60 53 48 43 40 41 43 44 50 50 51 49 42 37 61 78 78 82 74 80 88 89 89 87 85 84 85 84 85 85 85 87
Wind_Speed
8 3 5 4 3 5 2 5 2 3 2 4 1 3 8 5 1 2 7 7 5 12 9 8 6 5 6 7 8 8 7 7 6 5 5 5 3 2 3 0 2 3 3 3 4 3 3 3 3
6 1 3 2 4 3 4 4 3 5 6 7 7 1 8 4 1 3 5 6 10 8 7 8 6 5 5 4 5 6 7 6 4 3 4 5 6 2 2 1 1 1 2 2 2 2 2 2 2
5 2 3 4 3 4 4 3 4 2 6 1 4 7 4 3 0 2 4 8 10 8 7 7 6 5 4 3 3 3 4 5 5 5 4 5 5 4 3 3 4 3 3 2 2 2 2 2 2
7 4 4 4 4 4 4 4 3 6 2 6 5 8 2 1 1 3 7 10 11 9 8 7 6 5 3 1 0 2 3 2 3 4 5 6 6 5 5 6 6 5 5 4 4 4 4 4 4
3 3 4 3 3 3 3 5 5 3 4 3 1 4 2 0 5 7 9 12 11 12 11 8 6 4 3 1 1 2 3 3 4 5 5 6 7 6 6 5 5 7 6 6 6 6 7 7 6
4 3 4 4 3 1 2 3 2 3 3 4 6 5 1 3 7 9 13 14 12 12 10 8 5 3 1 1 1 2 3 4 5 6 7 7 8 8 8 7 5 7 9 9 9 9 10 10 9
7 5 6 6 4 2 3 3 3 3 4 4 7 4 0 2 8 12 14 14 13 11 10 8 6 4 3 2 1 2 3 4 5 7 7 8 9 9 9 9 9 10 12 12 12 12 12 12 12
5 5 5 5 6 4 1 3 2 4 3 2 2 6 5 5 14 16 15 15 13 11 9 7 4 4 3 1 2 3 4 5 6 6 7 8 8 9 9 11 10 12 14 15 15 15 15 14 14
3 5 4 8 7 5 4 4 2 0 5 3 4 4 7 21 17 17 15 13 11 9 7 5 2 2 2 2 4 5 6 6 7 8 8 8 9 10 10 9 13 13 15 16 18 18 18 17 16
4 4 9 5 5 5 4 4 5 3 3 4 3 7 22 21 17 16 13 10 8 6 4 2 1 3 4 5 7 7 8 8 8 9 9 10 10 10 11 11 10 13 15 16 18 18 19 19 20
2 5 6 2 3 4 6 4 2 7 0 5 10 10 10 14 12 12 10 8 6 4 2 1 3 5 6 7 8 8 9 10 10 11 11 11 11 11 12 13 13 13 12 13 15 16 15 15 17
7 4 4 2 1 4 4 5 4 2 0 2 7 7 7 7 10 11 10 8 6 4 2 3 5 7 8 9 9 10 11 11 11 12 12 13 14 14 15 14 13 13 13 13 13 14 15 16 17
5 3 5 5 8 6 6 4 5 2 3 7 8 6 7 7 9 9 8 7 6 5 4 5 7 8 9 9 10 10 11 12 12 13 13 14 14 14 15 14 14 13 13 14 15 15 16 16 17
4 6 4 7 6 5 6 3 1 1 3 7 7 6 6 7 10 9 9 9 8 7 6 6 8 8 9 10 10 11 12 12 12 12 13 12 13 13 13 13 12 12 12 13 14 15 16 17 17
4 8 6 10 7 4 0 2 2 5 4 7 7 6 6 9 10 13 13 12 10 8 7 8 8 8 9 10 10 11 12 12 12 12 12 12 11 12 12 13 14 14 15 17 17 18 18 19 19
5 6 5 5 7 4 4 5 3 6 8 8 7 6 6 7 14 17 14 12 11 9 8 8 8 9 9 10 10 11 11 12 12 14 14 14 14 15 15 15 15 15 16 17 17 17 19 19 21
7 5 4 2 4 2 3 3 1 4 6 7 7 8 8 8 13 17 16 14 12 8 8 8 8 8 8 10 10 11 12 12 14 15 14 14 14 12 11 11 12 14 15 14 13 15 15 19 20
5 7 3 5 2 3 1 5 3 4 5 9 7 8 8 9 12 16 16 13 11 8 8 8 8 8 9 10 12 12 11 12 15 15 14 12 11 13 13 12 11 9 11 12 13 14 15 15 18
7 6 6 2 3 2 1 5 8 6 5 8 9 9 9 10 9 10 13 14 12 10 9 9 10 8 9 11 12 14 14 17 16 14 12 12 10 10 12 10 8 8 11 12 13 14 16 17 18
7 9 4 1 5 2 4 10 10 6 6 8 9 9 10 6 4 5 10 16 14 10 10 10 10 9 9 11 11 11 14 12 15 12 10 10 10 9 8 8 7 8 9 10 12 14 16 13 17
6 6 3 3 2 4 4 7 5 1 2 4 6 7 6 9 8 6 12 15 12 13 12 11 11 9 10 10 11 11 12 13 10 11 10 11 9 8 8 7 7 8 10 10 12 13 12 12 16
5 4 2 4 4 2 5 4 5 3 6 4 7 5 7 7 4 5 11 12 15 15 12 13 12 11 9 10 11 11 11 11 10 10 11 11 9 9 8 7 8 9 9 10 10 12 13 11 14
4 3 3 3 6 4 8 4 7 4 3 4 8 5 4 4 2 6 11 15 14 13 14 13 12 12 10 11 10 10 11 9 8 7 8 10 11 10 7 7 8 9 9 10 12 14 14 11 11
7 4 6 4 4 3 3 3 6 0 1 4 4 4 4 3 3 3 7 9 13 12 13 13 14 14 12 11 11 11 10 8 7 5 7 9 10 11 8 9 10 9 9 11 12 14 13 13 12
5 5 4 5 4 4 3 3 8 5 6 4 8 6 4 4 2 5 6 9 12 13 14 16 16 17 13 12 12 11 10 9 9 6 8 10 11 11 11 10 12 10 10 9 11 13 13 12 13
3 4 5 5 2 4 2 5 5 4 6 2 3 5 5 5 3 6 9 11 13 14 15 16 18 18 15 13 13 11 11 11 10 9 10 12 12 12 10 10 11 10 9 8 10 13 11 11 11
2 4 2 7 4 3 3 7 8 2 2 5 7 7 8 7 6 8 12 13 12 12 13 15 17 18 17 15 13 13 12 12 12 12 12 13 13 12 10 10 9 9 9 9 10 12 12 11 10
4 4 4 3 2 3 5 5 5 2 1 5 6 6 7 7 8 8 13 15 15 15 16 16 16 18 17 15 14 14 13 13 13 14 14 13 13 12 12 11 10 8 8 9 10 11 11 13 12
2 1 5 4 3 4 1 6 6 6 3 1 6 6 8 8 8 8 15 20 19 21 21 20 18 17 17 17 15 14 14 14 14 13 13 13 13 12 12 11 10 8 8 8 8 9 10 12 14
2 3 4 4 5 1 3 6 2 6 4 4 6 8 9 8 9 9 16 18 22 25 25 21 20 19 19 18 17 16 15 15 15 13 12 11 12 12 11 11 9 9 8 7 7 9 10 11 12
Wind_Direction
237 303 325 31 65 66 256 266 264 121 82 330 35 115 120 69 64 168 140 119 137 157 154 157 149 128 114 85 73 73 78 80 80 71 55 40 30 40 19 109 85 74 71 67 80 114 107 79 83
212 173 63 81 95 109 259 274 224 183 156 149 82 76 49 71 27 101 124 135 131 144 159 156 152 138 114 103 76 64 62 62 60 49 36 30 19 339 337 257 308 350 13 21 68 54 64 80 70
185 131 92 106 121 183 209 223 192 95 154 42 97 40 82 94 7 113 122 156 157 155 153 157 153 148 127 99 73 62 47 46 39 29 14 13 17 9 307 289 265 279 308 321 322 328 348 346 331
185 35 36 100 208 243 196 192 199 119 66 45 92 67 49 264 257 119 132 148 163 163 157 155 155 155 149 151 59 44 24 358 358 5 8 3 3 358 341 287 258 268 284 297 295 296 303 308 309
121 67 84 115 240 257 257 152 169 123 89 52 70 152 77 284 148 122 127 144 157 148 151 153 157 166 150 196 271 298 322 327 319 327 338 344 344 347 345 341 267 263 266 286 285 283 286 291 291
60 100 93 168 233 162 104 135 142 84 89 141 84 99 130 153 159 138 128 131 136 139 139 145 151 148 116 68 17 334 322 328 321 320 322 324 326 329 331 328 296 269 267 281 283 280 278 281 282
119 96 170 154 190 120 124 88 83 108 108 65 132 85 60 205 172 141 132 128 130 131 135 132 137 133 130 108 72 34 4 347 336 327 323 319 315 314 315 312 298 286 282 284 283 280 279 278 280
114 92 123 176 169 177 108 85 123 66 80 91 124 165 187 186 151 134 132 128 127 128 123 119 116 93 85 79 9 353 339 332 332 333 331 325 318 314 312 308 305 301 291 288 284 281 279 277 276
126 81 159 179 158 167 167 116 40 80 88 45 356 156 155 150 146 135 131 127 125 124 116 110 85 36 14 353 329 327 329 323 316 313 312 309 311 312 311 308 300 298 297 293 289 285 282 280 278
89 113 186 174 165 159 113 100 134 99 54 39 41 70 134 148 150 144 143 137 138 127 112 93 34 345 328 317 316 314 311 309 313 315 313 309 309 307 307 309 302 292 292 294 293 297 286 276 276
75 159 170 123 203 164 128 83 52 125 325 202 169 147 136 152 160 160 162 158 153 160 148 350 337 328 318 314 311 312 312 310 307 307 309 309 307 304 304 304 302 302 308 311 305 301 303 302 298
93 24 122 87 171 109 101 114 84 16 216 214 152 131 133 154 171 177 175 170 168 185 232 297 314 318 316 317 319 321 320 318 316 317 316 311 309 309 311 313 315 315 314 313 311 314 314 311 310
86 157 60 88 94 68 96 68 137 22 345 122 126 131 153 163 180 189 185 186 201 218 249 286 307 311 314 320 324 326 327 327 326 323 320 316 313 313 311 307 307 308 307 308 306 304 302 303 305
115 98 101 47 54 54 103 96 106 251 118 109 143 169 175 184 191 194 197 203 209 225 249 281 297 303 314 321 326 329 329 328 328 328 327 325 323 321 316 315 315 316 319 319 317 317 313 308 307
140 75 39 18 2 64 24 45 217 161 142 150 179 194 211 222 209 214 215 219 221 229 257 280 288 299 311 317 322 326 327 327 328 330 331 334 329 323 319 315 313 314 314 311 308 304 303 305 303
61 50 90 345 2 353 75 255 227 158 152 195 209 227 240 245 226 228 230 231 226 234 255 267 275 288 301 309 314 321 323 324 322 321 321 320 315 312 311 310 312 316 318 317 316 317 314 310 305
21 131 98 95 36 315 82 227 308 165 182 217 227 235 239 257 252 240 237 236 225 237 256 263 271 284 294 304 311 316 319 321 324 322 320 316 319 322 318 320 322 327 332 340 339 332 332 326 323
159 111 75 127 340 39 63 274 313 208 200 234 244 249 249 252 249 252 244 228 220 234 253 263 270 280 292 303 310 313 317 323 327 327 326 322 315 318 316 315 320 334 346 355 359 357 349 343 339
112 97 102 5 354 80 294 284 272 250 233 252 250 246 250 251 270 270 240 213 212 230 249 264 270 281 289 306 319 324 327 332 334 336 339 338 331 325 318 304 315 330 343 349 352 350 346 344 354
75 103 66 43 10 85 12 281 256 250 241 225 241 249 244 247 258 253 203 199 212 232 249 256 273 278 292 304 313 316 323 329 335 342 344 352 348 348 346 342 336 339 346 357 358 356 346 334 352
35 95 139 135 47 57 334 301 309 344 270 288 265 252 242 236 238 221 202 207 217 233 247 262 271 273 289 299 306 311 316 323 335 351 357 1 357 1 353 348 345 345 339 338 345 338 336 323 339
76 338 61 79 81 176 7 267 302 340 314 331 337 320 281 267 246 210 203 214 225 241 255 259 261 271 284 295 303 308 313 314 325 338 341 346 356 353 355 353 347 343 339 335 331 343 338 330 330
143 86 92 83 86 85 354 70 271 348 23 351 342 312 300 295 246 201 203 220 232 246 255 259 254 266 278 292 297 296 293 295 313 330 330 337 347 351 352 350 348 342 342 340 340 337 337 335 326
147 87 49 60 79 36 318 100 286 221 12 313 353 337 281 281 256 248 226 238 247 253 253 253 257 265 273 286 289 288 280 286 292 308 317 325 333 332 342 342 340 339 347 351 334 333 333 334 330
62 58 9 8 12 218 313 30 246 291 289 265 295 297 299 261 249 245 240 241 263 262 262 261 261 265 267 276 281 281 271 273 275 283 298 308 314 320 331 330 333 340 339 333 340 335 331 333 334
63 119 143 187 179 261 349 240 259 213 295 334 20 334 318 307 279 270 270 273 274 276 278 271 262 260 261 269 277 276 273 271 274 268 278 292 299 300 304 308 310 324 332 334 334 336 339 341 340
278 52 158 99 41 42 250 287 306 310 208 354 336 339 308 293 284 277 279 267 270 278 288 286 274 265 262 268 274 274 269 266 273 277 277 279 283 290 293 296 304 318 327 337 328 323 330 338 346
92 160 65 4 126 278 286 272 239 301 299 0 2 347 337 312 300 289 278 264 265 280 294 292 281 268 267 267 268 269 268 266 272 275 279 283 288 287 286 292 299 302 313 313 316 320 326 331 329
58 77 59 113 124 169 265 269 216 211 216 89 353 347 324 312 289 277 279 275 280 291 292 293 286 276 268 268 269 268 269 269 269 273 281 284 286 283 283 288 292 303 302 314 321 321 321 323 326
159 168 143 124 213 149 144 274 269 239 273 260 317 322 310 299 293 296 291 287 290 295 297 289 293 281 274 272 268 268 269 267 266 272 272 282 280 280 281 283 292 295 294 298 314 314 314 316 311